Погода в Нафталане

Азербайджан     40°30′13″N   46°49′27″E
темп.,
°C
ветер,
м/с
пор.,
м/с
влажн.,
%
обл.,
%
осадки,
мм/ч
давл.,
гПа
погр.,
м
6 марта, сб
сб601:00+6юз01530 0.0 102222
04:00+6з23490 0.0 102223
07:00+5зсз23480 0.0 102236
10:00+10сз23320 0.0 1022345
13:00+13ссз33280 0.0 1019649
16:00+14ссз32260 0.0 1017747
19:00+12зсз23340 0.0 101724
22:00+11зюз234011 0.0 101724
7 марта, вс
вс701:00+10з333945 0.0 101527
04:00+9зсз563233 0.0 101482
07:00+10зсз9153095 0.0 1014354
10:00+10сз8113897 0.0 1014531
13:00+13сз893446 0.0 1014816
16:00+15зсз673059 0.0 10141645
19:00+13ссз3439100 0.0 1016260
22:00+5юв8975100 0.3 1019459
8 марта, пн
пн801:00+2юв7992100 1.7 1021505
04:00+1юв6887100 2.1 1021508
07:00+1ююв688599 0.2 1021442
10:00+2ююв677695 0.3 1020527
13:00+4юв5671100 0.1 1017661
16:00+4юв446996 0.1 1014613
19:00+3ююв237598 0.1 1013393
22:00+2ссз238899 0.2 1014291
9 марта, вт
вт901:00+2сз7994100 0.8 1014509
04:00+2сз598497 0.8 1015469
07:00+2зсз358128 0.0 1016188
10:00+5сз346114 0.0 1016554
13:00+8ссз55500 0.0 1016903
16:00+9сз554026 0.1 10151351
19:00+8зсз464414 0.0 1017350
22:00+6зсз34547 0.0 1020114
10 марта, ср
ср1001:00+5зсз35500 0.0 102196
04:00+4зсз34530 0.0 102171
07:00+3зсз34550 0.0 102255
10:00+6сз22401 0.0 1022674
13:00+8всв32340 0.0 10201441
16:00+9вюв433929 0.0 10181361
19:00+8юв5649100 0.0 1018814
22:00+5юв797486 0.0 1018535